| time (UTC) | temp F | wind direction | speed MPH | gust MPH | rain 1hr in | rain 24hr in | rain mn in | humidity % | barometer mb |
| 20260906162503 | 73 | 148 | 2.0 | 7.0 | 0.00 | 0.00 | 0.00 | 84 | 1019.8 |
| 20260906162006 | 73 | 23 | 1.0 | 7.0 | 0.00 | 0.00 | 0.00 | 84 | 1020.1 |
| 20260906161510 | 73 | 161 | 2.0 | 5.0 | 0.00 | 0.00 | 0.00 | 84 | 1020.0 |
| 20260906161008 | 73 | 186 | 0.0 | 4.0 | 0.00 | 0.00 | 0.00 | 86 | 1020.1 |
| 20260906160508 | 73 | 113 | 0.0 | 3.0 | 0.00 | 0.00 | 0.00 | 85 | 1020.1 |
| 20260906160019 | 73 | 137 | 1.0 | 5.0 | 0.00 | 0.00 | 0.00 | 85 | 1020.1 |
| 20260906155510 | 73 | 65 | 0.0 | 5.0 | 0.00 | 0.00 | 0.00 | 85 | 1020.1 |
| 20260906155012 | 73 | 36 | 0.0 | 4.0 | 0.00 | 0.00 | 0.00 | 85 | 1020.1 |
| 20260906154524 | 73 | 146 | 1.0 | 4.0 | 0.00 | 0.00 | 0.00 | 87 | 1020.2 |
| 20260906154013 | 72 | 180 | 1.0 | 5.0 | 0.00 | 0.00 | 0.00 | 86 | 1020.1 |
| 20260906153512 | 72 | 40 | 2.0 | 5.0 | 0.00 | 0.00 | 0.00 | 86 | 1019.9 |
| 20260906153030 | 72 | 76 | 1.0 | 5.0 | 0.00 | 0.00 | 0.00 | 87 | 1020.0 |
| 20260906152504 | 72 | 136 | 1.0 | 4.0 | 0.00 | 0.00 | 0.00 | 87 | 1020.0 |
| 20260906152004 | 71 | 131 | 1.0 | 3.0 | 0.00 | 0.00 | 0.00 | 87 | 1020.1 |
| 20260906151508 | 71 | 105 | 0.0 | 4.0 | 0.00 | 0.00 | 0.00 | 88 | 1020.1 |
| 20260906151003 | 71 | 53 | 2.0 | 4.0 | 0.00 | 0.00 | 0.00 | 88 | 1020.1 |
| 20260906150507 | 71 | 246 | 0.0 | 4.0 | 0.00 | 0.00 | 0.00 | 88 | 1020.1 |
| 20260906150017 | 71 | 44 | 1.0 | 4.0 | 0.00 | 0.00 | 0.00 | 88 | 1020.1 |
| 20260906145510 | 71 | 88 | 0.0 | 7.0 | 0.00 | 0.00 | 0.00 | 88 | 1020.1 |
| 20260906145013 | 71 | 199 | 2.0 | 7.0 | 0.00 | 0.00 | 0.00 | 88 | 1020.0 |
| 20260906144524 | 71 | 84 | 0.0 | 6.0 | 0.00 | 0.00 | 0.00 | 89 | 1019.9 |
| 20260906144009 | 71 | 65 | 1.0 | 6.0 | 0.00 | 0.00 | 0.00 | 89 | 1019.9 |
| 20260906143513 | 71 | 39 | 0.0 | 4.0 | 0.00 | 0.00 | 0.00 | 89 | 1019.9 |
| 20260906143031 | 70 | 112 | 1.0 | 6.0 | 0.00 | 0.00 | 0.00 | 90 | 1019.7 |
| 20260906142514 | 70 | 186 | 2.0 | 5.0 | 0.00 | 0.00 | 0.00 | 90 | 1019.7 |
| 20260906142014 | 70 | 202 | 1.0 | 7.0 | 0.00 | 0.00 | 0.00 | 90 | 1019.7 |
| 20260906141539 | 70 | 160 | 3.0 | 7.0 | 0.00 | 0.00 | 0.00 | 90 | 1019.8 |
| 20260906141006 | 69 | 146 | 1.0 | 4.0 | 0.00 | 0.00 | 0.00 | 91 | 1019.8 |
| 20260906140504 | 69 | 191 | 2.0 | 4.0 | 0.00 | 0.00 | 0.00 | 91 | 1019.7 |
| 20260906140035 | 69 | 37 | 1.0 | 5.0 | 0.00 | 0.00 | 0.00 | 92 | 1019.8 |
| 20260906135507 | 69 | 48 | 1.0 | 5.0 | 0.00 | 0.00 | 0.00 | 92 | 1019.8 |
| 20260906135007 | 69 | 55 | 2.0 | 7.0 | 0.00 | 0.00 | 0.00 | 92 | 1019.7 |
| 20260906134520 | 69 | 126 | 1.0 | 7.0 | 0.00 | 0.00 | 0.00 | 92 | 1019.6 |
| 20260906134008 | 69 | 165 | 2.0 | 7.0 | 0.00 | 0.00 | 0.00 | 93 | 1019.5 |
| 20260906133509 | 68 | 55 | 2.0 | 4.0 | 0.00 | 0.00 | 0.00 | 93 | 1019.5 |
| 20260906133026 | 68 | 177 | 0.0 | 7.0 | 0.00 | 0.00 | 0.00 | 93 | 1019.5 |
| 20260906132514 | 68 | 100 | 1.0 | 7.0 | 0.00 | 0.00 | 0.00 | 93 | 1019.4 |
| 20260906132013 | 68 | 109 | 2.0 | 6.0 | 0.00 | 0.00 | 0.00 | 93 | 1019.4 |
| 20260906131534 | 68 | 105 | 0.0 | 6.0 | 0.00 | 0.00 | 0.00 | 93 | 1019.5 |
| 20260906131015 | 68 | 110 | 1.0 | 7.0 | 0.00 | 0.00 | 0.00 | 93 | 1019.4 |
| 20260906130515 | 68 | 98 | 1.0 | 7.0 | 0.00 | 0.00 | 0.00 | 93 | 1019.3 |
| 20260906130012 | 68 | 149 | 1.0 | 5.0 | 0.00 | 0.00 | 0.00 | 93 | 1019.3 |
| 20260906125507 | 68 | 158 | 2.0 | 5.0 | 0.00 | 0.00 | 0.00 | 93 | 1019.2 |
| 20260906125007 | 68 | 66 | 1.0 | 4.0 | 0.00 | 0.00 | 0.00 | 93 | 1019.1 |
| 20260906124516 | 68 | 56 | 2.0 | 4.0 | 0.00 | 0.00 | 0.00 | 93 | 1019.1 |
| 20260906124010 | 68 | 82 | 1.0 | 3.0 | 0.00 | 0.00 | 0.00 | 94 | 1018.9 |
| 20260906123510 | 68 | 61 | 2.0 | 3.0 | 0.00 | 0.00 | 0.00 | 94 | 1019.0 |
| 20260906123022 | 68 | 48 | 1.0 | 4.0 | 0.00 | 0.00 | 0.00 | 94 | 1018.9 |
| 20260906122512 | 68 | 77 | 1.0 | 5.0 | 0.00 | 0.00 | 0.00 | 93 | 1018.9 |
| 20260906122015 | 68 | 37 | 2.0 | 5.0 | 0.00 | 0.00 | 0.00 | 93 | 1018.8 |
| 20260906121527 | 68 | 71 | 3.0 | 5.0 | 0.00 | 0.00 | 0.00 | 93 | 1018.7 |
| 20260906121013 | 68 | 55 | 2.0 | 4.0 | 0.00 | 0.00 | 0.00 | 93 | 1018.7 |
| 20260906120519 | 68 | 55 | 2.0 | 5.0 | 0.00 | 0.00 | 0.00 | 93 | 1018.6 |
| 20260906120035 | 68 | 48 | 2.0 | 5.0 | 0.00 | 0.00 | 0.00 | 94 | 1018.7 |
| 20260906115515 | 68 | 54 | 1.0 | 4.0 | 0.00 | 0.00 | 0.00 | 94 | 1018.7 |
| 20260906115006 | 68 | 116 | 0.0 | 5.0 | 0.00 | 0.00 | 0.00 | 95 | 1018.8 |
| 20260906114521 | 68 | 76 | 3.0 | 5.0 | 0.00 | 0.00 | 0.00 | 95 | 1018.7 |
| 20260906114010 | 68 | 48 | 2.0 | 4.0 | 0.00 | 0.00 | 0.00 | 95 | 1018.6 |
| 20260906113509 | 68 | 115 | 1.0 | 5.0 | 0.00 | 0.00 | 0.00 | 94 | 1018.6 |
| 20260906113034 | 68 | 51 | 2.0 | 5.0 | 0.00 | 0.00 | 0.00 | 94 | 1018.6 |
| 20260906112511 | 68 | 56 | 2.0 | 5.0 | 0.00 | 0.00 | 0.00 | 94 | 1018.6 |
| 20260906112014 | 68 | 61 | 2.0 | 5.0 | 0.00 | 0.00 | 0.00 | 94 | 1018.6 |
| 20260906111529 | 68 | 49 | 3.0 | 4.0 | 0.00 | 0.00 | 0.00 | 94 | 1018.5 |
| 20260906111011 | 69 | 56 | 1.0 | 4.0 | 0.00 | 0.00 | 0.00 | 94 | 1018.5 |
| 20260906110516 | 69 | 64 | 1.0 | 3.0 | 0.00 | 0.00 | 0.00 | 94 | 1018.5 |
| 20260906110032 | 69 | 28 | 1.0 | 2.0 | 0.00 | 0.00 | 0.00 | 94 | 1018.6 |
| 20260906105517 | 69 | 51 | 0.0 | 2.0 | 0.00 | 0.00 | 0.00 | 94 | 1018.6 |
| 20260906105015 | 69 | 63 | 0.0 | 2.0 | 0.00 | 0.00 | 0.00 | 94 | 1018.5 |
| 20260906104535 | 69 | 63 | 0.0 | 2.0 | 0.00 | 0.00 | 0.00 | 94 | 1018.3 |
| 20260906104019 | 69 | 136 | 0.0 | 2.0 | 0.00 | 0.00 | 0.00 | 94 | 1018.3 |
| 20260906103507 | 69 | 84 | 0.0 | 1.0 | 0.00 | 0.00 | 0.00 | 94 | 1018.2 |
| 20260906103020 | 69 | 84 | 0.0 | 1.0 | 0.00 | 0.00 | 0.00 | 94 | 1018.2 |
| 20260906102508 | 69 | 84 | 0.0 | 1.0 | 0.00 | 0.00 | 0.00 | 94 | 1018.2 |
| 20260906102010 | 69 | 49 | 0.0 | 0.0 | 0.00 | 0.00 | 0.00 | 94 | 1018.3 |
| 20260906101526 | 69 | 49 | 0.0 | 2.0 | 0.00 | 0.00 | 0.00 | 94 | 1018.4 |
| 20260906101013 | 69 | 49 | 0.0 | 4.0 | 0.00 | 0.00 | 0.00 | 94 | 1018.5 |
| 20260906100516 | 69 | 49 | 1.0 | 4.0 | 0.00 | 0.00 | 0.00 | 94 | 1018.4 |
| 20260906100033 | 69 | 46 | 2.0 | 3.0 | 0.00 | 0.00 | 0.00 | 94 | 1018.1 |
| 20260906095516 | 69 | 55 | 0.0 | 2.0 | 0.00 | 0.00 | 0.00 | 94 | 1017.8 |
| 20260906095016 | 69 | 142 | 1.0 | 2.0 | 0.00 | 0.00 | 0.00 | 94 | 1017.8 |
| 20260906094531 | 69 | 28 | 0.0 | 2.0 | 0.00 | 0.00 | 0.00 | 94 | 1017.7 |
| 20260906094019 | 69 | 79 | 0.0 | 0.0 | 0.00 | 0.00 | 0.00 | 94 | 1017.7 |
| 20260906093518 | 69 | 79 | 0.0 | 0.0 | 0.00 | 0.00 | 0.00 | 94 | 1017.7 |
| 20260906093046 | 69 | 79 | 0.0 | 2.0 | 0.00 | 0.00 | 0.00 | 94 | 1017.5 |
| 20260906092509 | 69 | 79 | 0.0 | 2.0 | 0.00 | 0.00 | 0.00 | 94 | 1017.3 |
| 20260906092011 | 69 | 46 | 0.0 | 2.0 | 0.00 | 0.00 | 0.00 | 94 | 1017.3 |
| 20260906091525 | 69 | 118 | 1.0 | 2.0 | 0.00 | 0.00 | 0.00 | 94 | 1017.3 |
| 20260906091011 | 69 | 58 | 0.0 | 2.0 | 0.00 | 0.00 | 0.00 | 94 | 1017.3 |
| 20260906090513 | 69 | 98 | 0.0 | 2.0 | 0.00 | 0.00 | 0.00 | 93 | 1017.2 |
| 20260906090043 | 69 | 57 | 1.0 | 2.0 | 0.00 | 0.00 | 0.00 | 94 | 1017.2 |
| 20260906085514 | 69 | 66 | 1.0 | 2.0 | 0.00 | 0.00 | 0.00 | 94 | 1017.3 |
| 20260906085012 | 69 | 50 | 1.0 | 4.0 | 0.00 | 0.00 | 0.00 | 93 | 1017.3 |
| 20260906084534 | 69 | 16 | 1.0 | 6.0 | 0.00 | 0.00 | 0.00 | 93 | 1017.2 |
| 20260906084013 | 69 | 152 | 2.0 | 6.0 | 0.00 | 0.00 | 0.00 | 93 | 1017.2 |
| 20260906083516 | 69 | 51 | 3.0 | 7.0 | 0.00 | 0.00 | 0.00 | 93 | 1017.3 |
| 20260906083039 | 69 | 58 | 3.0 | 7.0 | 0.00 | 0.00 | 0.00 | 93 | 1017.4 |
| 20260906082518 | 69 | 54 | 3.0 | 6.0 | 0.00 | 0.00 | 0.00 | 93 | 1017.4 |
| 20260906082018 | 69 | 55 | 2.0 | 5.0 | 0.00 | 0.00 | 0.00 | 93 | 1017.3 |
| 20260906081533 | 69 | 53 | 2.0 | 5.0 | 0.00 | 0.00 | 0.00 | 93 | 1017.4 |
| 20260906081011 | 70 | 42 | 3.0 | 4.0 | 0.00 | 0.00 | 0.00 | 93 | 1017.4 |
| 20260906080513 | 69 | 70 | 1.0 | 2.0 | 0.00 | 0.00 | 0.00 | 93 | 1017.2 |
| 20260906080028 | 70 | 55 | 0.0 | 2.0 | 0.00 | 0.00 | 0.00 | 93 | 1017.2 |
| 20260906075511 | 70 | 76 | 0.0 | 2.0 | 0.00 | 0.00 | 0.00 | 92 | 1017.2 |
| 20260906075004 | 70 | 94 | 0.0 | 2.0 | 0.00 | 0.00 | 0.00 | 92 | 1017.4 |
| 20260906074521 | 70 | 56 | 1.0 | 3.0 | 0.00 | 0.00 | 0.00 | 92 | 1017.5 |
| 20260906074002 | 70 | 159 | 1.0 | 3.0 | 0.00 | 0.00 | 0.00 | 92 | 1017.5 |
| 20260906073504 | 70 | 125 | 0.0 | 4.0 | 0.00 | 0.00 | 0.00 | 92 | 1017.5 |
| 20260906073011 | 70 | 51 | 1.0 | 6.0 | 0.00 | 0.00 | 0.00 | 92 | 1017.5 |
| 20260906072506 | 70 | 49 | 3.0 | 6.0 | 0.00 | 0.00 | 0.00 | 92 | 1017.6 |
| 20260906072008 | 70 | 76 | 3.0 | 6.0 | 0.00 | 0.00 | 0.00 | 92 | 1017.6 |
| 20260906071518 | 70 | 50 | 3.0 | 4.0 | 0.00 | 0.00 | 0.00 | 92 | 1017.6 |
| 20260906071010 | 70 | 63 | 2.0 | 4.0 | 0.00 | 0.00 | 0.00 | 92 | 1017.5 |
| 20260906070510 | 70 | 59 | 2.0 | 4.0 | 0.00 | 0.00 | 0.00 | 92 | 1017.6 |
| 20260906070025 | 70 | 65 | 2.0 | 5.0 | 0.00 | 0.00 | 0.00 | 92 | 1017.7 |
| 20260906065513 | 70 | 67 | 3.0 | 5.0 | 0.00 | 0.00 | 0.00 | 92 | 1017.7 |
| 20260906065013 | 70 | 71 | 3.0 | 5.0 | 0.00 | 0.00 | 0.00 | 92 | 1017.7 |
| 20260906064503 | 70 | 87 | 1.0 | 4.0 | 0.00 | 0.00 | 0.00 | 92 | 1017.7 |
| 20260906064004 | 70 | 57 | 2.0 | 4.0 | 0.00 | 0.00 | 0.00 | 92 | 1017.9 |
| 20260906063504 | 70 | 66 | 2.0 | 4.0 | 0.00 | 0.00 | 0.00 | 92 | 1018.0 |
| 20260906063008 | 70 | 78 | 2.0 | 4.0 | 0.00 | 0.00 | 0.00 | 91 | 1018.0 |
| 20260906062506 | 71 | 70 | 2.0 | 4.0 | 0.00 | 0.00 | 0.00 | 91 | 1017.9 |
| 20260906062006 | 71 | 60 | 2.0 | 4.0 | 0.00 | 0.00 | 0.00 | 91 | 1017.9 |
| 20260906061512 | 71 | 52 | 1.0 | 3.0 | 0.00 | 0.00 | 0.00 | 91 | 1017.9 |
| 20260906061008 | 71 | 75 | 1.0 | 2.0 | 0.00 | 0.00 | 0.00 | 91 | 1017.8 |
| 20260906060509 | 71 | 60 | 0.0 | 3.0 | 0.00 | 0.00 | 0.00 | 91 | 1017.8 |
| 20260906060021 | 71 | 60 | 1.0 | 3.0 | 0.00 | 0.00 | 0.00 | 90 | 1017.8 |
| 20260906055511 | 71 | 76 | 0.0 | 2.0 | 0.00 | 0.00 | 0.00 | 90 | 1017.9 |
| 20260906055013 | 72 | 82 | 1.0 | 3.0 | 0.00 | 0.00 | 0.00 | 90 | 1017.8 |
| 20260906054526 | 72 | 75 | 1.0 | 5.0 | 0.00 | 0.00 | 0.00 | 90 | 1017.8 |
| 20260906054014 | 72 | 69 | 2.0 | 5.0 | 0.00 | 0.00 | 0.00 | 90 | 1017.8 |
| 20260906053513 | 72 | 52 | 1.0 | 4.0 | 0.00 | 0.00 | 0.00 | 90 | 1017.7 |
| 20260906053008 | 72 | 41 | 1.0 | 3.0 | 0.00 | 0.00 | 0.00 | 90 | 1017.6 |
| 20260906052504 | 72 | 51 | 1.0 | 3.0 | 0.00 | 0.00 | 0.00 | 90 | 1017.7 |
| 20260906052004 | 72 | 47 | 2.0 | 4.0 | 0.00 | 0.00 | 0.00 | 90 | 1017.8 |
| 20260906051511 | 73 | 78 | 1.0 | 4.0 | 0.00 | 0.00 | 0.00 | 89 | 1017.6 |
| 20260906051006 | 73 | 69 | 3.0 | 4.0 | 0.00 | 0.00 | 0.00 | 89 | 1017.5 |
| 20260906050505 | 73 | 52 | 2.0 | 4.0 | 0.00 | 0.00 | 0.00 | 89 | 1017.4 |
| 20260906050021 | 73 | 63 | 2.0 | 4.0 | 0.00 | 0.00 | 0.00 | 89 | 1017.4 |
| 20260906045511 | 73 | 49 | 2.0 | 4.0 | 0.00 | 0.00 | 0.00 | 89 | 1017.5 |
| 20260906045010 | 73 | 51 | 2.0 | 4.0 | 0.00 | 0.00 | 0.00 | 89 | 1017.5 |
| 20260906044526 | 73 | 48 | 2.0 | 4.0 | 0.00 | 0.00 | 0.00 | 89 | 1017.4 |
| 20260906044015 | 73 | 55 | 2.0 | 5.0 | 0.00 | 0.00 | 0.00 | 89 | 1017.4 |
| 20260906043514 | 73 | 59 | 2.0 | 5.0 | 0.00 | 0.00 | 0.00 | 89 | 1017.5 |
| 20260906043031 | 73 | 49 | 3.0 | 5.0 | 0.00 | 0.00 | 0.00 | 89 | 1017.5 |
| 20260906042516 | 73 | 58 | 2.0 | 4.0 | 0.00 | 0.00 | 0.00 | 89 | 1017.5 |
| 20260906042002 | 73 | 56 | 2.0 | 3.0 | 0.00 | 0.00 | 0.00 | 89 | 1017.6 |
| 20260906041512 | 73 | 63 | 1.0 | 4.0 | 0.00 | 0.00 | 0.00 | 89 | 1017.6 |
| 20260906041006 | 74 | 82 | 1.0 | 5.0 | 0.00 | 0.00 | 0.00 | 89 | 1017.6 |
| 20260906040509 | 74 | 61 | 3.0 | 5.0 | 0.00 | 0.00 | 0.00 | 89 | 1017.6 |
| 20260906040013 | 74 | 59 | 3.0 | 5.0 | 0.00 | 0.00 | 0.00 | 89 | 1017.4 |
| 20260906035509 | 74 | 71 | 2.0 | 5.0 | 0.00 | 0.00 | 0.00 | 88 | 1017.4 |
| 20260906035010 | 74 | 61 | 2.0 | 5.0 | 0.00 | 0.00 | 0.00 | 88 | 1017.4 |
| 20260906034525 | 74 | 55 | 2.0 | 5.0 | 0.00 | 0.00 | 0.00 | 88 | 1017.4 |
| 20260906034009 | 74 | 44 | 2.0 | 5.0 | 0.00 | 0.00 | 0.00 | 88 | 1017.4 |
| 20260906033513 | 74 | 54 | 2.0 | 4.0 | 0.00 | 0.00 | 0.00 | 88 | 1017.3 |
| 20260906033026 | 74 | 63 | 1.0 | 4.0 | 0.00 | 0.00 | 0.00 | 88 | 1017.3 |
| 20260906032516 | 74 | 41 | 2.0 | 5.0 | 0.00 | 0.00 | 0.00 | 88 | 1017.2 |
| 20260906032016 | 75 | 76 | 2.0 | 5.0 | 0.00 | 0.00 | 0.00 | 88 | 1017.1 |
| 20260906031536 | 75 | 49 | 3.0 | 5.0 | 0.00 | 0.00 | 0.00 | 88 | 1017.1 |
| 20260906031007 | 75 | 54 | 2.0 | 5.0 | 0.00 | 0.00 | 0.00 | 88 | 1017.1 |
| 20260906030503 | 75 | 65 | 2.0 | 8.0 | 0.00 | 0.00 | 0.00 | 88 | 1017.1 |
| 20260906030011 | 75 | 74 | 2.0 | 8.0 | 0.00 | 0.00 | 0.00 | 88 | 1017.1 |
| 20260906025508 | 75 | 60 | 3.0 | 5.0 | 0.00 | 0.00 | 0.00 | 88 | 1017.1 |
| 20260906025007 | 75 | 41 | 2.0 | 5.0 | 0.00 | 0.00 | 0.00 | 88 | 1017.0 |
| 20260906024517 | 75 | 68 | 3.0 | 5.0 | 0.00 | 0.00 | 0.00 | 88 | 1017.0 |
| 20260906024011 | 75 | 63 | 3.0 | 5.0 | 0.00 | 0.00 | 0.00 | 88 | 1017.0 |
| 20260906023512 | 75 | 55 | 2.0 | 7.0 | 0.00 | 0.00 | 0.00 | 87 | 1016.9 |
| 20260906023026 | 75 | 55 | 2.0 | 7.0 | 0.00 | 0.00 | 0.00 | 87 | 1016.9 |
| 20260906022512 | 75 | 59 | 3.0 | 5.0 | 0.00 | 0.00 | 0.00 | 87 | 1016.9 |
| 20260906022016 | 76 | 88 | 3.0 | 6.0 | 0.00 | 0.00 | 0.00 | 87 | 1016.9 |
| 20260906021530 | 76 | 59 | 3.0 | 6.0 | 0.00 | 0.00 | 0.00 | 87 | 1016.7 |
| 20260906021016 | 76 | 64 | 3.0 | 4.0 | 0.00 | 0.00 | 0.00 | 87 | 1016.7 |
| 20260906020513 | 76 | 61 | 2.0 | 4.0 | 0.00 | 0.00 | 0.00 | 86 | 1016.6 |
| 20260906020034 | 76 | 63 | 2.0 | 4.0 | 0.00 | 0.00 | 0.00 | 86 | 1016.5 |
| 20260906015505 | 76 | 74 | 1.0 | 4.0 | 0.00 | 0.00 | 0.00 | 86 | 1016.4 |
| 20260906015007 | 76 | 75 | 2.0 | 4.0 | 0.00 | 0.00 | 0.00 | 86 | 1016.2 |
| 20260906014535 | 76 | 45 | 2.0 | 4.0 | 0.00 | 0.00 | 0.00 | 86 | 1016.1 |
| 20260906014007 | 76 | 55 | 2.0 | 4.0 | 0.00 | 0.00 | 0.00 | 86 | 1016.0 |
| 20260906013514 | 76 | 57 | 2.0 | 4.0 | 0.00 | 0.00 | 0.00 | 86 | 1016.0 |
| 20260906013026 | 76 | 60 | 2.0 | 4.0 | 0.00 | 0.00 | 0.00 | 86 | 1016.0 |
| 20260906012512 | 76 | 60 | 2.0 | 5.0 | 0.00 | 0.00 | 0.00 | 86 | 1015.9 |
| 20260906012005 | 77 | 85 | 1.0 | 5.0 | 0.00 | 0.00 | 0.00 | 85 | 1015.9 |
| 20260906011508 | 77 | 71 | 2.0 | 4.0 | 0.00 | 0.00 | 0.00 | 85 | 1015.9 |
| 20260906011005 | 77 | 61 | 2.0 | 4.0 | 0.00 | 0.00 | 0.00 | 85 | 1016.0 |
| 20260906010504 | 77 | 51 | 2.0 | 3.0 | 0.00 | 0.00 | 0.00 | 85 | 1016.0 |
| 20260906010033 | 77 | 40 | 1.0 | 4.0 | 0.00 | 0.00 | 0.00 | 85 | 1016.0 |
| 20260906005505 | 77 | 61 | 1.0 | 4.0 | 0.00 | 0.00 | 0.00 | 85 | 1016.0 |
| 20260906005009 | 77 | 66 | 1.0 | 3.0 | 0.00 | 0.00 | 0.00 | 85 | 1015.9 |
| 20260906004510 | 77 | 45 | 1.0 | 3.0 | 0.00 | 0.00 | 0.00 | 85 | 1015.8 |
| 20260906004006 | 77 | 77 | 1.0 | 3.0 | 0.00 | 0.00 | 0.00 | 84 | 1015.7 |
| 20260906003503 | 78 | 74 | 1.0 | 2.0 | 0.00 | 0.00 | 0.00 | 84 | 1015.6 |
| 20260906003010 | 78 | 74 | 2.0 | 3.0 | 0.00 | 0.00 | 0.00 | 84 | 1015.6 |
| 20260906002502 | 78 | 69 | 1.0 | 3.0 | 0.00 | 0.00 | 0.00 | 83 | 1015.6 |
| 20260906002005 | 78 | 59 | 0.0 | 4.0 | 0.00 | 0.00 | 0.00 | 83 | 1015.5 |
| 20260906001509 | 79 | 61 | 2.0 | 4.0 | 0.00 | 0.00 | 0.00 | 82 | 1015.6 |
| 20260906001003 | 79 | 57 | 2.0 | 4.0 | 0.00 | 0.00 | 0.00 | 82 | 1015.7 |
| 20260906000504 | 79 | 54 | 1.0 | 2.0 | 0.00 | 0.00 | 0.00 | 82 | 1015.6 |
| 20260906000007 | 79 | 47 | 1.0 | 3.0 | 0.00 | 0.00 | 0.00 | 81 | 1015.7 |
| 20260905235504 | 79 | 55 | 2.0 | 4.0 | 0.00 | 0.00 | 0.00 | 81 | 1015.7 |
| 20260905235006 | 79 | 53 | 0.0 | 4.0 | 0.00 | 0.00 | 0.00 | 81 | 1015.7 |
| 20260905234510 | 80 | 57 | 1.0 | 5.0 | 0.00 | 0.00 | 0.00 | 81 | 1015.7 |
| 20260905234010 | 80 | 58 | 2.0 | 5.0 | 0.00 | 0.00 | 0.00 | 81 | 1015.7 |
| 20260905233510 | 80 | 77 | 2.0 | 5.0 | 0.00 | 0.00 | 0.00 | 81 | 1015.6 |
| 20260905233012 | 81 | 76 | 3.0 | 9.0 | 0.00 | 0.00 | 0.00 | 80 | 1015.7 |
| 20260905232506 | 81 | 84 | 3.0 | 9.0 | 0.00 | 0.00 | 0.00 | 80 | 1015.7 |
| 20260905232006 | 81 | 55 | 3.0 | 8.0 | 0.00 | 0.00 | 0.00 | 80 | 1015.6 |
| 20260905231510 | 81 | 71 | 2.0 | 8.0 | 0.00 | 0.00 | 0.00 | 80 | 1015.6 |
| 20260905231011 | 81 | 89 | 4.0 | 8.0 | 0.00 | 0.00 | 0.00 | 81 | 1015.5 |
| 20260905230503 | 81 | 50 | 2.0 | 8.0 | 0.00 | 0.00 | 0.00 | 81 | 1015.4 |
| 20260905230014 | 81 | 62 | 4.0 | 7.0 | 0.00 | 0.00 | 0.00 | 80 | 1015.2 |
| 20260905225507 | 82 | 71 | 5.0 | 9.0 | 0.00 | 0.00 | 0.00 | 79 | 1015.2 |
| 20260905225004 | 82 | 77 | 4.0 | 10.0 | 0.00 | 0.00 | 0.00 | 79 | 1015.1 |
| 20260905224508 | 82 | 52 | 4.0 | 11.0 | 0.00 | 0.00 | 0.00 | 79 | 1015.1 |
| 20260905224005 | 83 | 104 | 3.0 | 13.0 | 0.00 | 0.00 | 0.00 | 78 | 1015.0 |
| 20260905223506 | 83 | 64 | 6.0 | 13.0 | 0.00 | 0.00 | 0.00 | 78 | 1014.9 |
| 20260905223019 | 83 | 49 | 6.0 | 12.0 | 0.00 | 0.00 | 0.00 | 78 | 1014.8 |
| 20260905222506 | 83 | 58 | 5.0 | 12.0 | 0.00 | 0.00 | 0.00 | 78 | 1014.9 |
| 20260905222007 | 84 | 76 | 7.0 | 14.0 | 0.00 | 0.00 | 0.00 | 78 | 1014.9 |
| 20260905221515 | 84 | 67 | 6.0 | 14.0 | 0.00 | 0.00 | 0.00 | 78 | 1014.9 |
| 20260905221007 | 85 | 63 | 3.0 | 12.0 | 0.00 | 0.00 | 0.00 | 77 | 1015.0 |
| 20260905220507 | 85 | 49 | 6.0 | 12.0 | 0.00 | 0.00 | 0.00 | 77 | 1014.9 |
| 20260905220013 | 85 | 52 | 5.0 | 11.0 | 0.00 | 0.00 | 0.00 | 77 | 1014.7 |
| 20260905215512 | 85 | 45 | 5.0 | 11.0 | 0.00 | 0.00 | 0.00 | 77 | 1014.7 |
| 20260905215010 | 85 | 85 | 5.0 | 11.0 | 0.00 | 0.00 | 0.00 | 77 | 1014.7 |
| 20260905214518 | 85 | 69 | 4.0 | 10.0 | 0.00 | 0.00 | 0.00 | 78 | 1014.7 |
| 20260905214005 | 85 | 83 | 5.0 | 11.0 | 0.00 | 0.00 | 0.00 | 77 | 1014.6 |
| 20260905213506 | 85 | 78 | 6.0 | 12.0 | 0.00 | 0.00 | 0.00 | 77 | 1014.6 |
| 20260905213018 | 85 | 64 | 4.0 | 13.0 | 0.00 | 0.00 | 0.00 | 77 | 1014.6 |
| 20260905212508 | 85 | 50 | 5.0 | 13.0 | 0.00 | 0.00 | 0.00 | 76 | 1014.8 |
| 20260905212008 | 85 | 61 | 6.0 | 10.0 | 0.00 | 0.00 | 0.00 | 77 | 1014.9 |
| 20260905211533 | 85 | 71 | 4.0 | 10.0 | 0.00 | 0.00 | 0.00 | 76 | 1015.0 |
| 20260905211010 | 85 | 101 | 4.0 | 10.0 | 0.00 | 0.00 | 0.00 | 76 | 1015.1 |
| 20260905210507 | 86 | 74 | 3.0 | 9.0 | 0.00 | 0.00 | 0.00 | 77 | 1015.2 |
| 20260905210015 | 86 | 68 | 2.0 | 10.0 | 0.00 | 0.00 | 0.00 | 77 | 1015.2 |
| 20260905205509 | 86 | 60 | 5.0 | 10.0 | 0.00 | 0.00 | 0.00 | 75 | 1015.2 |
| 20260905205008 | 86 | 49 | 3.0 | 9.0 | 0.00 | 0.00 | 0.00 | 76 | 1015.3 |
| 20260905204523 | 86 | 67 | 5.0 | 9.0 | 0.00 | 0.00 | 0.00 | 76 | 1015.3 |
| 20260905204011 | 86 | 62 | 4.0 | 9.0 | 0.00 | 0.00 | 0.00 | 75 | 1015.4 |
| 20260905203508 | 86 | 55 | 3.0 | 9.0 | 0.00 | 0.00 | 0.00 | 75 | 1015.3 |
| 20260905203034 | 86 | 77 | 3.0 | 9.0 | 0.00 | 0.00 | 0.00 | 75 | 1015.4 |
| 20260905202509 | 86 | 73 | 5.0 | 10.0 | 0.00 | 0.00 | 0.00 | 74 | 1015.5 |
| 20260905202006 | 87 | 55 | 3.0 | 10.0 | 0.00 | 0.00 | 0.00 | 74 | 1015.6 |
| 20260905201525 | 88 | 61 | 4.0 | 8.0 | 0.00 | 0.00 | 0.00 | 72 | 1015.6 |
| 20260905201008 | 88 | 60 | 1.0 | 10.0 | 0.00 | 0.00 | 0.00 | 75 | 1015.6 |
| 20260905200508 | 87 | 80 | 3.0 | 10.0 | 0.00 | 0.00 | 0.00 | 74 | 1015.6 |
| 20260905200017 | 88 | 82 | 3.0 | 9.0 | 0.00 | 0.00 | 0.00 | 73 | 1015.7 |
| 20260905195507 | 88 | 276 | 3.0 | 7.0 | 0.00 | 0.00 | 0.00 | 73 | 1015.8 |
| 20260905195011 | 87 | 85 | 1.0 | 10.0 | 0.00 | 0.00 | 0.00 | 76 | 1016.0 |
| 20260905194518 | 87 | 61 | 3.0 | 10.0 | 0.00 | 0.00 | 0.00 | 75 | 1016.0 |
| 20260905194010 | 87 | 69 | 2.0 | 9.0 | 0.00 | 0.00 | 0.00 | 76 | 1015.9 |
| 20260905193509 | 87 | 34 | 3.0 | 11.0 | 0.00 | 0.00 | 0.00 | 76 | 1015.9 |
| 20260905193023 | 87 | 323 | 4.0 | 11.0 | 0.00 | 0.00 | 0.00 | 76 | 1015.8 |
| 20260905192513 | 88 | 59 | 2.0 | 11.0 | 0.00 | 0.00 | 0.00 | 77 | 1015.9 |
| 20260905192008 | 87 | 28 | 1.0 | 11.0 | 0.00 | 0.00 | 0.00 | 77 | 1016.0 |
| 20260905191524 | 87 | 54 | 4.0 | 11.0 | 0.00 | 0.00 | 0.00 | 77 | 1016.1 |
| 20260905191008 | 88 | 91 | 6.0 | 10.0 | 0.00 | 0.00 | 0.00 | 75 | 1016.0 |
| 20260905190507 | 88 | 62 | 2.0 | 4.0 | 0.00 | 0.00 | 0.00 | 75 | 1016.3 |
| 20260905190023 | 88 | 312 | 1.0 | 10.0 | 0.00 | 0.00 | 0.00 | 77 | 1016.4 |
| 20260905185509 | 87 | 64 | 4.0 | 11.0 | 0.00 | 0.00 | 0.00 | 76 | 1016.4 |
| 20260905185011 | 88 | 105 | 6.0 | 11.0 | 0.00 | 0.00 | 0.00 | 74 | 1016.3 |
| 20260905184527 | 88 | 61 | 5.0 | 10.0 | 0.00 | 0.00 | 0.00 | 73 | 1016.4 |
| 20260905184013 | 89 | 333 | 0.0 | 4.0 | 0.00 | 0.00 | 0.00 | 73 | 1016.5 |
| 20260905183512 | 88 | 89 | 2.0 | 4.0 | 0.00 | 0.00 | 0.00 | 72 | 1016.4 |
| 20260905183025 | 88 | 319 | 1.0 | 3.0 | 0.00 | 0.00 | 0.00 | 73 | 1016.4 |
| 20260905182513 | 88 | 288 | 1.0 | 7.0 | 0.00 | 0.00 | 0.00 | 74 | 1016.4 |
| 20260905182011 | 87 | 64 | 3.0 | 7.0 | 0.00 | 0.00 | 0.00 | 76 | 1016.5 |
| 20260905181525 | 87 | 63 | 2.0 | 5.0 | 0.00 | 0.00 | 0.00 | 76 | 1016.5 |
| 20260905181010 | 87 | 57 | 1.0 | 5.0 | 0.00 | 0.00 | 0.00 | 77 | 1016.5 |
| 20260905180509 | 87 | 51 | 1.0 | 5.0 | 0.00 | 0.00 | 0.00 | 76 | 1016.5 |
| 20260905180018 | 87 | 55 | 2.0 | 5.0 | 0.00 | 0.00 | 0.00 | 76 | 1016.4 |
| 20260905175511 | 86 | 5 | 1.0 | 6.0 | 0.00 | 0.00 | 0.00 | 76 | 1016.4 |
| 20260905175010 | 86 | 59 | 2.0 | 6.0 | 0.00 | 0.00 | 0.00 | 76 | 1016.3 |
| 20260905174527 | 86 | 68 | 1.0 | 5.0 | 0.00 | 0.00 | 0.00 | 75 | 1016.2 |
| 20260905174011 | 87 | 63 | 2.0 | 7.0 | 0.00 | 0.00 | 0.00 | 76 | 1016.3 |
| 20260905173512 | 86 | 45 | 2.0 | 7.0 | 0.00 | 0.00 | 0.00 | 76 | 1016.2 |
| 20260905173026 | 86 | 33 | 5.0 | 7.0 | 0.00 | 0.00 | 0.00 | 76 | 1016.2 |
| 20260905172509 | 86 | 65 | 1.0 | 7.0 | 0.00 | 0.00 | 0.00 | 76 | 1016.3 |
| 20260905172011 | 86 | 50 | 4.0 | 7.0 | 0.00 | 0.00 | 0.00 | 76 | 1016.3 |
| 20260905171524 | 86 | 44 | 2.0 | 4.0 | 0.00 | 0.00 | 0.00 | 76 | 1016.2 |
| 20260905171013 | 86 | 32 | 2.0 | 9.0 | 0.00 | 0.00 | 0.00 | 77 | 1016.2 |
| 20260905170513 | 85 | 42 | 4.0 | 9.0 | 0.00 | 0.00 | 0.00 | 76 | 1016.2 |
| 20260905170025 | 86 | 44 | 5.0 | 9.0 | 0.00 | 0.00 | 0.00 | 77 | 1016.3 |
| 20260905165512 | 86 | 53 | 2.0 | 8.0 | 0.00 | 0.00 | 0.00 | 77 | 1016.4 |
| 20260905165010 | 85 | 352 | 4.0 | 8.0 | 0.00 | 0.00 | 0.00 | 77 | 1016.4 |
| 20260905164523 | 85 | 68 | 2.0 | 8.0 | 0.00 | 0.01 | 0.00 | 78 | 1016.4 |
| 20260905164010 | 85 | 89 | 4.0 | 8.0 | 0.00 | 0.02 | 0.00 | 77 | 1016.4 |
| 20260905163514 | 85 | 61 | 3.0 | 8.0 | 0.00 | 0.05 | 0.00 | 77 | 1016.4 |
| 20260905163028 | 85 | 65 | 4.0 | 8.0 | 0.00 | 0.06 | 0.00 | 77 | 1016.4 |